User: anonymous
Location: Unspecified
(0.0000°N, 0.0000°E)
Time: 15:46:44
(UTC+02:00)
Language:

Cosmos 773 Rocket - Orbit

View from above orbital plane
View from above orbital plane
View from above satellite
View from above satellite

Ground track
Ground track

The orbit data is extracted from the following two-line orbital elements,

1 08344U 75094B   14110.21842209  .00000436  00000-0  15018-3 0  4423
2 08344 074.0574 091.5276 0023271 281.7784 176.2386 14.38725827 19718
Epoch (UTC): 20 April 2014 05:14:31
Eccentricity: 0.0023271
inclination: 74.0574°
perigee height: 746 km
apogee height: 779 km
right ascension of ascending node: 91.5276°
argument of perigee: 281.7784°
revolutions per day: 14.38725827
mean anomaly at epoch: 176.2386°
orbit number at epoch: 1971

The dashed part of the orbit path shows where the satellite is in the earth's shadow,  

DLR